| time (UTC) | temp F | wind direction | speed MPH | gust MPH | rain 1hr in | rain 24hr in | rain mn in | humidity % | barometer mb |
| 20260509134315 | 74 | 360 | 0.0 | 1.0 | 0.00 | 0.01 | 0.01 | 99 | 1010.2 |
| 20260509133814 | 74 | 360 | 0.0 | 2.0 | 0.00 | 0.01 | 0.01 | 99 | 1010.2 |
| 20260509133314 | 74 | 360 | 1.0 | 2.0 | 0.00 | 0.01 | 0.01 | 99 | 1010.0 |
| 20260509132815 | 74 | 360 | 0.0 | 1.0 | 0.00 | 0.01 | 0.01 | 99 | 1010.1 |
| 20260509132334 | 74 | 360 | 0.0 | 0.0 | 0.00 | 0.01 | 0.01 | 99 | 1010.5 |
| 20260509131814 | 74 | 360 | 0.0 | 0.0 | 0.00 | 0.01 | 0.01 | 99 | 1010.5 |
| 20260509131332 | 74 | 360 | 0.0 | 0.0 | 0.00 | 0.01 | 0.01 | 99 | 1010.5 |
| 20260509130832 | 74 | 360 | 0.0 | 0.0 | 0.00 | 0.01 | 0.01 | 99 | 1010.4 |
| 20260509130331 | 74 | 360 | 0.0 | 1.0 | 0.00 | 0.01 | 0.01 | 99 | 1010.3 |
| 20260509125829 | 74 | 360 | 0.0 | 2.0 | 0.00 | 0.01 | 0.01 | 99 | 1010.3 |
| 20260509125330 | 74 | 360 | 0.0 | 2.0 | 0.00 | 0.01 | 0.01 | 99 | 1010.0 |
| 20260509124849 | 74 | 360 | 0.0 | 2.0 | 0.00 | 0.01 | 0.01 | 99 | 1009.9 |
| 20260509124326 | 74 | 360 | 1.0 | 3.0 | 0.00 | 0.01 | 0.01 | 99 | 1010.1 |
| 20260509123826 | 74 | 360 | 1.0 | 2.0 | 0.00 | 0.01 | 0.01 | 99 | 1010.0 |
| 20260509123325 | 74 | 360 | 1.0 | 2.0 | 0.00 | 0.01 | 0.01 | 99 | 1009.9 |
| 20260509122822 | 74 | 360 | 0.0 | 2.0 | 0.00 | 0.01 | 0.01 | 99 | 1010.0 |
| 20260509122322 | 74 | 360 | 0.0 | 2.0 | 0.00 | 0.01 | 0.01 | 99 | 1010.2 |
| 20260509121820 | 74 | 360 | 1.0 | 2.0 | 0.00 | 0.01 | 0.01 | 99 | 1010.3 |
| 20260509121319 | 74 | 360 | 1.0 | 2.0 | 0.00 | 0.01 | 0.01 | 99 | 1010.3 |
| 20260509120818 | 74 | 360 | 1.0 | 2.0 | 0.00 | 0.01 | 0.01 | 99 | 1010.3 |
| 20260509120316 | 74 | 360 | 1.0 | 2.0 | 0.00 | 0.01 | 0.01 | 99 | 1010.3 |
| 20260509115816 | 74 | 360 | 0.0 | 1.0 | 0.00 | 0.01 | 0.01 | 99 | 1010.2 |
| 20260509115316 | 74 | 360 | 0.0 | 2.0 | 0.00 | 0.01 | 0.01 | 99 | 1010.1 |
| 20260509114329 | 74 | 360 | 0.0 | 2.0 | 0.00 | 0.01 | 0.01 | 99 | 1010.2 |
| 20260509113827 | 74 | 360 | 0.0 | 4.0 | 0.00 | 0.01 | 0.01 | 99 | 1010.2 |
| 20260509113324 | 74 | 360 | 2.0 | 4.0 | 0.00 | 0.01 | 0.01 | 99 | 1010.3 |
| 20260509112821 | 74 | 360 | 1.0 | 3.0 | 0.00 | 0.01 | 0.01 | 99 | 1010.2 |
| 20260509112319 | 74 | 360 | 1.0 | 5.0 | 0.00 | 0.01 | 0.01 | 99 | 1010.1 |
| 20260509111818 | 74 | 360 | 2.0 | 6.0 | 0.00 | 0.01 | 0.01 | 99 | 1009.9 |
| 20260509111317 | 74 | 360 | 2.0 | 5.0 | 0.00 | 0.01 | 0.01 | 99 | 1010.1 |
| 20260509110816 | 74 | 360 | 1.0 | 4.0 | 0.00 | 0.01 | 0.01 | 99 | 1010.0 |
| 20260509110336 | 74 | 360 | 1.0 | 3.0 | 0.00 | 0.01 | 0.01 | 99 | 1010.1 |
| 20260509105835 | 74 | 360 | 1.0 | 5.0 | 0.00 | 0.01 | 0.01 | 99 | 1010.1 |
| 20260509105348 | 74 | 360 | 1.0 | 5.0 | 0.00 | 0.01 | 0.01 | 99 | 1010.0 |
| 20260509104847 | 74 | 360 | 1.0 | 5.0 | 0.00 | 0.01 | 0.01 | 98 | 1009.9 |
| 20260509104323 | 74 | 360 | 2.0 | 3.0 | 0.00 | 0.01 | 0.01 | 98 | 1009.7 |
| 20260509103823 | 74 | 360 | 1.0 | 2.0 | 0.00 | 0.01 | 0.01 | 98 | 1009.6 |
| 20260509103323 | 74 | 360 | 0.0 | 1.0 | 0.00 | 0.01 | 0.01 | 98 | 1009.7 |
| 20260509102841 | 74 | 360 | 0.0 | 1.0 | 0.00 | 0.01 | 0.01 | 98 | 1009.7 |
| 20260509102321 | 74 | 360 | 0.0 | 1.0 | 0.01 | 0.01 | 0.01 | 98 | 1009.8 |
| 20260509101820 | 74 | 360 | 0.0 | 1.0 | 0.01 | 0.01 | 0.01 | 98 | 1010.0 |
| 20260509101319 | 74 | 360 | 0.0 | 1.0 | 0.01 | 0.01 | 0.01 | 98 | 1010.0 |
| 20260509100817 | 74 | 360 | 0.0 | 1.0 | 0.01 | 0.01 | 0.01 | 98 | 1010.0 |
| 20260509100315 | 74 | 360 | 0.0 | 1.0 | 0.01 | 0.01 | 0.01 | 98 | 1010.0 |
| 20260509095814 | 74 | 360 | 0.0 | 1.0 | 0.01 | 0.01 | 0.01 | 98 | 1010.0 |
| 20260509095353 | 74 | 360 | 0.0 | 2.0 | 0.01 | 0.01 | 0.01 | 98 | 1009.9 |
| 20260509094830 | 74 | 360 | 0.0 | 2.0 | 0.01 | 0.01 | 0.01 | 98 | 1009.7 |
| 20260509094347 | 74 | 360 | 0.0 | 1.0 | 0.01 | 0.01 | 0.01 | 98 | 1009.5 |
| 20260509093826 | 74 | 360 | 0.0 | 2.0 | 0.01 | 0.01 | 0.01 | 98 | 1009.4 |
| 20260509093326 | 74 | 360 | 0.0 | 2.0 | 0.01 | 0.01 | 0.01 | 98 | 1009.3 |
| 20260509092847 | 74 | 360 | 0.0 | 1.0 | 0.01 | 0.01 | 0.01 | 98 | 1009.4 |
| 20260509092328 | 74 | 360 | 0.0 | 1.0 | 0.00 | 0.00 | 0.00 | 98 | 1009.5 |
| 20260509091828 | 74 | 360 | 0.0 | 2.0 | 0.00 | 0.00 | 0.00 | 98 | 1009.4 |
| 20260509091348 | 74 | 360 | 0.0 | 1.0 | 0.00 | 0.00 | 0.00 | 98 | 1009.4 |
| 20260509090826 | 74 | 360 | 0.0 | 3.0 | 0.00 | 0.00 | 0.00 | 98 | 1009.4 |
| 20260509090316 | 74 | 360 | 0.0 | 3.0 | 0.00 | 0.00 | 0.00 | 98 | 1009.4 |
| 20260509085835 | 74 | 360 | 1.0 | 5.0 | 0.00 | 0.00 | 0.00 | 98 | 1009.3 |
| 20260509085315 | 74 | 360 | 1.0 | 5.0 | 0.00 | 0.00 | 0.00 | 98 | 1009.2 |
| 20260509084813 | 74 | 360 | 1.0 | 3.0 | 0.00 | 0.00 | 0.00 | 98 | 1009.3 |
| 20260509084314 | 74 | 360 | 1.0 | 3.0 | 0.00 | 0.00 | 0.00 | 98 | 1009.5 |
| 20260509083814 | 74 | 360 | 1.0 | 3.0 | 0.00 | 0.00 | 0.00 | 98 | 1009.5 |
| 20260509083331 | 74 | 360 | 0.0 | 2.0 | 0.00 | 0.00 | 0.00 | 98 | 1009.6 |
| 20260509082849 | 74 | 360 | 0.0 | 2.0 | 0.00 | 0.00 | 0.00 | 97 | 1009.5 |
| 20260509082326 | 74 | 360 | 0.0 | 1.0 | 0.00 | 0.00 | 0.00 | 97 | 1009.5 |
| 20260509081826 | 74 | 360 | 0.0 | 0.0 | 0.00 | 0.00 | 0.00 | 97 | 1009.6 |
| 20260509081324 | 74 | 360 | 0.0 | 0.0 | 0.00 | 0.00 | 0.00 | 97 | 1009.3 |
| 20260509080825 | 74 | 360 | 0.0 | 0.0 | 0.00 | 0.00 | 0.00 | 97 | 1009.3 |
| 20260509080323 | 74 | 360 | 0.0 | 0.0 | 0.00 | 0.00 | 0.00 | 97 | 1009.4 |
| 20260509075823 | 74 | 360 | 0.0 | 0.0 | 0.00 | 0.00 | 0.00 | 97 | 1009.4 |
| 20260509075322 | 74 | 360 | 0.0 | 1.0 | 0.00 | 0.00 | 0.00 | 97 | 1009.4 |
| 20260509074820 | 74 | 360 | 0.0 | 1.0 | 0.00 | 0.00 | 0.00 | 97 | 1009.2 |
| 20260509074339 | 74 | 360 | 0.0 | 1.0 | 0.00 | 0.00 | 0.00 | 97 | 1009.2 |
| 20260509073816 | 74 | 360 | 0.0 | 0.0 | 0.00 | 0.00 | 0.00 | 97 | 1009.3 |
| 20260509073316 | 74 | 360 | 0.0 | 3.0 | 0.00 | 0.00 | 0.00 | 97 | 1009.4 |
| 20260509072816 | 74 | 360 | 1.0 | 4.0 | 0.00 | 0.00 | 0.00 | 97 | 1009.5 |
| 20260509072315 | 74 | 360 | 2.0 | 5.0 | 0.00 | 0.00 | 0.00 | 97 | 1009.5 |
| 20260509071836 | 74 | 360 | 2.0 | 5.0 | 0.00 | 0.00 | 0.00 | 97 | 1009.4 |
| 20260509071349 | 74 | 360 | 3.0 | 6.0 | 0.00 | 0.00 | 0.00 | 97 | 1009.4 |
| 20260509070827 | 74 | 360 | 3.0 | 6.0 | 0.00 | 0.00 | 0.00 | 97 | 1009.5 |
| 20260509070327 | 74 | 360 | 2.0 | 4.0 | 0.00 | 0.00 | 0.00 | 97 | 1009.6 |
| 20260509065826 | 74 | 360 | 2.0 | 4.0 | 0.00 | 0.00 | 0.00 | 97 | 1009.6 |
| 20260509065325 | 74 | 360 | 2.0 | 5.0 | 0.00 | 0.00 | 0.00 | 97 | 1009.6 |
| 20260509064825 | 74 | 360 | 3.0 | 5.0 | 0.00 | 0.00 | 0.00 | 97 | 1009.4 |
| 20260509064322 | 74 | 360 | 3.0 | 8.0 | 0.00 | 0.00 | 0.00 | 97 | 1009.4 |
| 20260509063821 | 74 | 360 | 2.0 | 9.0 | 0.00 | 0.00 | 0.00 | 96 | 1009.2 |
| 20260509063322 | 74 | 360 | 2.0 | 10.0 | 0.00 | 0.00 | 0.00 | 97 | 1009.4 |
| 20260509062842 | 74 | 360 | 5.0 | 10.0 | 0.00 | 0.00 | 0.00 | 97 | 1009.3 |
| 20260509062340 | 74 | 360 | 5.0 | 8.0 | 0.00 | 0.00 | 0.00 | 97 | 1009.2 |
| 20260509061819 | 74 | 360 | 3.0 | 8.0 | 0.00 | 0.00 | 0.00 | 96 | 1009.1 |
| 20260509061338 | 74 | 360 | 4.0 | 10.0 | 0.00 | 0.00 | 0.00 | 96 | 1009.2 |
| 20260509060816 | 74 | 360 | 5.0 | 10.0 | 0.00 | 0.00 | 0.00 | 96 | 1009.5 |
| 20260509060315 | 74 | 360 | 5.0 | 10.0 | 0.00 | 0.00 | 0.00 | 96 | 1009.4 |
| 20260509055827 | 74 | 360 | 5.0 | 10.0 | 0.00 | 0.00 | 0.00 | 96 | 1009.3 |
| 20260509055324 | 74 | 360 | 5.0 | 9.0 | 0.00 | 0.00 | 0.00 | 96 | 1009.3 |
| 20260509054823 | 74 | 360 | 4.0 | 13.0 | 0.00 | 0.00 | 0.00 | 97 | 1009.4 |
| 20260509054343 | 74 | 360 | 6.0 | 13.0 | 0.00 | 0.00 | 0.00 | 97 | 1009.5 |
| 20260509053821 | 74 | 360 | 4.0 | 11.0 | 0.00 | 0.00 | 0.00 | 97 | 1009.6 |
| 20260509053316 | 74 | 360 | 6.0 | 11.0 | 0.00 | 0.00 | 0.00 | 97 | 1009.5 |
| 20260509052815 | 74 | 360 | 5.0 | 11.0 | 0.00 | 0.00 | 0.00 | 97 | 1009.6 |
| 20260509052314 | 74 | 360 | 4.0 | 12.0 | 0.00 | 0.00 | 0.00 | 97 | 1009.6 |
| 20260509051832 | 74 | 360 | 6.0 | 12.0 | 0.00 | 0.00 | 0.00 | 97 | 1009.4 |
| 20260509051331 | 74 | 360 | 5.0 | 10.0 | 0.00 | 0.00 | 0.00 | 97 | 1009.3 |
| 20260509050812 | 73 | 360 | 3.0 | 8.0 | 0.00 | 0.00 | 0.00 | 97 | 1009.3 |
| 20260509050329 | 73 | 360 | 4.0 | 8.0 | 0.00 | 0.00 | 0.00 | 97 | 1009.4 |
| 20260509045827 | 73 | 360 | 3.0 | 8.0 | 0.00 | 0.00 | 0.00 | 97 | 1009.5 |
| 20260509045327 | 73 | 360 | 3.0 | 8.0 | 0.00 | 0.00 | 0.00 | 97 | 1009.4 |
| 20260509044826 | 72 | 360 | 1.0 | 3.0 | 0.00 | 0.00 | 0.00 | 97 | 1009.5 |
| 20260509044325 | 72 | 360 | 2.0 | 3.0 | 0.00 | 0.00 | 0.00 | 97 | 1009.6 |
| 20260509043825 | 72 | 360 | 0.0 | 2.0 | 0.00 | 0.00 | 0.00 | 96 | 1009.7 |
| 20260509043323 | 72 | 360 | 0.0 | 0.0 | 0.00 | 0.00 | 0.00 | 96 | 1009.6 |
| 20260509042843 | 72 | 360 | 0.0 | 0.0 | 0.00 | 0.00 | 0.00 | 96 | 1009.7 |
| 20260509042319 | 72 | 360 | 0.0 | 0.0 | 0.00 | 0.00 | 0.00 | 95 | 1009.6 |
| 20260509041820 | 72 | 360 | 0.0 | 0.0 | 0.00 | 0.00 | 0.00 | 95 | 1009.7 |
| 20260509041320 | 72 | 360 | 0.0 | 0.0 | 0.00 | 0.00 | 0.00 | 95 | 1009.7 |
| 20260509040819 | 72 | 360 | 0.0 | 0.0 | 0.00 | 0.00 | 0.00 | 95 | 1009.6 |
| 20260509040317 | 72 | 360 | 0.0 | 1.0 | 0.00 | 0.00 | 0.00 | 95 | 1009.6 |
| 20260509035816 | 73 | 360 | 0.0 | 2.0 | 0.00 | 0.00 | 0.00 | 95 | 1009.4 |
| 20260509035314 | 73 | 360 | 1.0 | 3.0 | 0.00 | 0.00 | 0.00 | 94 | 1009.3 |
| 20260509034813 | 73 | 360 | 2.0 | 3.0 | 0.00 | 0.00 | 0.00 | 94 | 1009.4 |
| 20260509034331 | 73 | 360 | 1.0 | 2.0 | 0.00 | 0.00 | 0.00 | 94 | 1009.5 |
| 20260509033830 | 73 | 360 | 1.0 | 2.0 | 0.00 | 0.00 | 0.00 | 94 | 1009.5 |
| 20260509033328 | 73 | 360 | 1.0 | 1.0 | 0.00 | 0.00 | 0.00 | 94 | 1009.4 |
| 20260509032826 | 73 | 360 | 0.0 | 0.0 | 0.00 | 0.00 | 0.00 | 94 | 1009.3 |
| 20260509032326 | 74 | 360 | 0.0 | 0.0 | 0.00 | 0.00 | 0.00 | 94 | 1009.4 |
| 20260509031826 | 74 | 360 | 0.0 | 0.0 | 0.00 | 0.00 | 0.00 | 94 | 1009.4 |
| 20260509031326 | 74 | 360 | 0.0 | 0.0 | 0.00 | 0.00 | 0.00 | 94 | 1009.3 |
| 20260509030825 | 74 | 360 | 0.0 | 0.0 | 0.00 | 0.00 | 0.00 | 94 | 1009.2 |
| 20260509030346 | 74 | 360 | 0.0 | 0.0 | 0.00 | 0.00 | 0.00 | 94 | 1009.1 |
| 20260509025821 | 74 | 360 | 0.0 | 0.0 | 0.00 | 0.00 | 0.00 | 93 | 1009.0 |
| 20260509025318 | 74 | 360 | 0.0 | 1.0 | 0.00 | 0.00 | 0.00 | 93 | 1008.9 |
| 20260509024819 | 74 | 360 | 0.0 | 3.0 | 0.00 | 0.00 | 0.00 | 93 | 1008.8 |
| 20260509024318 | 75 | 360 | 1.0 | 3.0 | 0.00 | 0.00 | 0.00 | 92 | 1008.7 |
| 20260509023816 | 75 | 360 | 0.0 | 2.0 | 0.00 | 0.00 | 0.00 | 92 | 1008.6 |
| 20260509023315 | 75 | 360 | 1.0 | 2.0 | 0.00 | 0.00 | 0.00 | 92 | 1008.5 |
| 20260509022816 | 75 | 360 | 0.0 | 0.0 | 0.00 | 0.00 | 0.00 | 92 | 1008.5 |
| 20260509022315 | 75 | 360 | 0.0 | 0.0 | 0.00 | 0.00 | 0.00 | 92 | 1008.6 |
| 20260509021834 | 75 | 360 | 0.0 | 0.0 | 0.00 | 0.00 | 0.00 | 92 | 1008.6 |
| 20260509021329 | 75 | 360 | 0.0 | 1.0 | 0.00 | 0.00 | 0.00 | 91 | 1008.5 |
| 20260509020813 | 76 | 360 | 0.0 | 1.0 | 0.00 | 0.00 | 0.00 | 91 | 1008.4 |
| 20260509020328 | 76 | 360 | 0.0 | 1.0 | 0.00 | 0.00 | 0.00 | 91 | 1008.3 |
| 20260509015848 | 76 | 360 | 0.0 | 1.0 | 0.00 | 0.00 | 0.00 | 90 | 1008.2 |
| 20260509015325 | 76 | 360 | 0.0 | 1.0 | 0.00 | 0.00 | 0.00 | 89 | 1008.1 |
| 20260509014824 | 76 | 360 | 0.0 | 2.0 | 0.00 | 0.00 | 0.00 | 90 | 1008.1 |
| 20260509014324 | 77 | 360 | 0.0 | 2.0 | 0.00 | 0.00 | 0.00 | 89 | 1008.0 |
| 20260509013824 | 77 | 360 | 0.0 | 3.0 | 0.00 | 0.00 | 0.00 | 89 | 1008.0 |
| 20260509013322 | 77 | 360 | 1.0 | 3.0 | 0.00 | 0.00 | 0.00 | 88 | 1008.0 |
| 20260509012821 | 77 | 360 | 1.0 | 2.0 | 0.00 | 0.00 | 0.00 | 88 | 1008.1 |
| 20260509012320 | 77 | 360 | 1.0 | 3.0 | 0.00 | 0.00 | 0.00 | 88 | 1008.1 |
| 20260509011820 | 78 | 360 | 0.0 | 2.0 | 0.00 | 0.00 | 0.00 | 88 | 1008.1 |
| 20260509011319 | 78 | 360 | 0.0 | 2.0 | 0.00 | 0.00 | 0.00 | 87 | 1008.0 |
| 20260509010819 | 78 | 360 | 0.0 | 1.0 | 0.00 | 0.00 | 0.00 | 87 | 1008.0 |
| 20260509010320 | 78 | 360 | 0.0 | 2.0 | 0.00 | 0.00 | 0.00 | 87 | 1008.0 |
| 20260509005839 | 78 | 360 | 1.0 | 4.0 | 0.00 | 0.00 | 0.00 | 86 | 1008.0 |
| 20260509005319 | 78 | 360 | 1.0 | 4.0 | 0.00 | 0.00 | 0.00 | 86 | 1008.0 |
| 20260509004820 | 78 | 360 | 1.0 | 6.0 | 0.00 | 0.00 | 0.00 | 86 | 1007.9 |
| 20260509004319 | 79 | 360 | 2.0 | 6.0 | 0.00 | 0.00 | 0.00 | 85 | 1007.7 |
| 20260509003818 | 79 | 360 | 0.0 | 3.0 | 0.00 | 0.00 | 0.00 | 85 | 1008.0 |
| 20260509003336 | 79 | 360 | 2.0 | 3.0 | 0.00 | 0.00 | 0.00 | 85 | 1008.0 |
| 20260509002815 | 80 | 360 | 0.0 | 4.0 | 0.00 | 0.00 | 0.00 | 85 | 1008.1 |
| 20260509002315 | 80 | 360 | 2.0 | 4.0 | 0.00 | 0.00 | 0.00 | 84 | 1008.1 |
| 20260509001816 | 80 | 360 | 1.0 | 5.0 | 0.00 | 0.00 | 0.00 | 84 | 1008.0 |
| 20260509001317 | 80 | 360 | 3.0 | 5.0 | 0.00 | 0.00 | 0.00 | 83 | 1007.9 |
| 20260509000834 | 80 | 360 | 0.0 | 2.0 | 0.00 | 0.00 | 0.00 | 84 | 1007.9 |
| 20260509000314 | 80 | 360 | 1.0 | 4.0 | 0.00 | 0.00 | 0.00 | 83 | 1007.9 |
| 20260508235814 | 80 | 360 | 2.0 | 4.0 | 0.00 | 0.00 | 0.00 | 83 | 1007.9 |
| 20260508235313 | 80 | 360 | 1.0 | 4.0 | 0.00 | 0.00 | 0.00 | 83 | 1008.0 |
| 20260508234832 | 80 | 360 | 1.0 | 4.0 | 0.00 | 0.00 | 0.00 | 83 | 1008.0 |
| 20260508234352 | 80 | 360 | 1.0 | 4.0 | 0.00 | 0.00 | 0.00 | 83 | 1008.0 |
| 20260508233831 | 80 | 360 | 0.0 | 4.0 | 0.00 | 0.00 | 0.00 | 82 | 1008.0 |
| 20260508233332 | 81 | 360 | 1.0 | 3.0 | 0.00 | 0.00 | 0.00 | 81 | 1008.0 |
| 20260508232831 | 81 | 360 | 1.0 | 3.0 | 0.00 | 0.00 | 0.00 | 83 | 1008.0 |
| 20260508232332 | 81 | 360 | 0.0 | 3.0 | 0.00 | 0.00 | 0.00 | 82 | 1008.0 |
| 20260508231831 | 81 | 360 | 1.0 | 3.0 | 0.00 | 0.00 | 0.00 | 82 | 1008.0 |
| 20260508231330 | 81 | 360 | 1.0 | 3.0 | 0.00 | 0.00 | 0.00 | 81 | 1008.0 |
| 20260508230815 | 81 | 360 | 1.0 | 3.0 | 0.00 | 0.00 | 0.00 | 81 | 1008.1 |
| 20260508230353 | 81 | 360 | 1.0 | 3.0 | 0.00 | 0.00 | 0.00 | 81 | 1008.2 |
| 20260508225830 | 81 | 360 | 1.0 | 4.0 | 0.00 | 0.00 | 0.00 | 80 | 1008.1 |
| 20260508225329 | 81 | 360 | 1.0 | 5.0 | 0.00 | 0.00 | 0.00 | 81 | 1008.1 |
| 20260508224828 | 81 | 360 | 1.0 | 5.0 | 0.00 | 0.00 | 0.00 | 81 | 1008.0 |
| 20260508224328 | 81 | 360 | 2.0 | 5.0 | 0.00 | 0.00 | 0.00 | 80 | 1008.0 |
| 20260508223826 | 81 | 360 | 2.0 | 4.0 | 0.00 | 0.00 | 0.00 | 82 | 1008.0 |
| 20260508223346 | 81 | 360 | 2.0 | 3.0 | 0.00 | 0.00 | 0.00 | 81 | 1008.0 |
| 20260508222824 | 81 | 360 | 1.0 | 6.0 | 0.00 | 0.00 | 0.00 | 81 | 1008.0 |
| 20260508222322 | 81 | 360 | 3.0 | 6.0 | 0.00 | 0.00 | 0.00 | 80 | 1008.1 |
| 20260508221821 | 80 | 360 | 1.0 | 3.0 | 0.00 | 0.00 | 0.00 | 81 | 1008.1 |
| 20260508221321 | 80 | 360 | 1.0 | 3.0 | 0.00 | 0.00 | 0.00 | 82 | 1008.1 |
| 20260508220821 | 80 | 360 | 1.0 | 4.0 | 0.00 | 0.00 | 0.00 | 81 | 1008.1 |
| 20260508220318 | 80 | 360 | 2.0 | 5.0 | 0.00 | 0.00 | 0.00 | 81 | 1008.3 |
| 20260508215836 | 80 | 360 | 2.0 | 5.0 | 0.00 | 0.00 | 0.00 | 80 | 1008.3 |
| 20260508215334 | 81 | 360 | 2.0 | 4.0 | 0.00 | 0.00 | 0.00 | 80 | 1008.3 |
| 20260508214828 | 81 | 360 | 1.0 | 5.0 | 0.00 | 0.00 | 0.00 | 80 | 1008.4 |
| 20260508214327 | 81 | 360 | 2.0 | 5.0 | 0.00 | 0.00 | 0.00 | 79 | 1008.4 |
| 20260508213826 | 81 | 360 | 1.0 | 3.0 | 0.00 | 0.00 | 0.00 | 79 | 1008.4 |
| 20260508213324 | 81 | 360 | 1.0 | 4.0 | 0.00 | 0.00 | 0.00 | 81 | 1008.5 |
| 20260508212822 | 80 | 360 | 1.0 | 5.0 | 0.00 | 0.00 | 0.00 | 80 | 1008.5 |
| 20260508212321 | 80 | 360 | 3.0 | 5.0 | 0.00 | 0.00 | 0.00 | 80 | 1008.5 |
| 20260508211818 | 80 | 360 | 3.0 | 5.0 | 0.00 | 0.00 | 0.00 | 79 | 1008.5 |
| 20260508211334 | 81 | 360 | 3.0 | 8.0 | 0.00 | 0.00 | 0.00 | 79 | 1008.5 |
| 20260508210831 | 81 | 360 | 3.0 | 6.0 | 0.00 | 0.00 | 0.00 | 79 | 1008.6 |
| 20260508210330 | 81 | 360 | 2.0 | 5.0 | 0.00 | 0.00 | 0.00 | 79 | 1008.7 |
| 20260508205830 | 81 | 360 | 2.0 | 5.0 | 0.00 | 0.00 | 0.00 | 78 | 1008.7 |
| 20260508205328 | 82 | 360 | 2.0 | 5.0 | 0.00 | 0.00 | 0.00 | 77 | 1008.9 |
| 20260508204827 | 82 | 360 | 2.0 | 5.0 | 0.00 | 0.00 | 0.00 | 76 | 1008.9 |
| 20260508204326 | 83 | 360 | 0.0 | 5.0 | 0.00 | 0.00 | 0.00 | 74 | 1008.9 |
| 20260508203828 | 83 | 360 | 2.0 | 8.0 | 0.00 | 0.00 | 0.00 | 75 | 1009.0 |
| 20260508203347 | 83 | 360 | 3.0 | 6.0 | 0.00 | 0.00 | 0.00 | 74 | 1009.0 |
| 20260508202823 | 83 | 360 | 1.0 | 6.0 | 0.00 | 0.00 | 0.00 | 74 | 1009.1 |
| 20260508202323 | 83 | 360 | 2.0 | 6.0 | 0.00 | 0.00 | 0.00 | 76 | 1009.3 |
| 20260508201822 | 83 | 360 | 1.0 | 5.0 | 0.00 | 0.00 | 0.00 | 75 | 1009.3 |
| 20260508201320 | 82 | 360 | 3.0 | 8.0 | 0.00 | 0.00 | 0.00 | 76 | 1009.4 |
| 20260508200818 | 83 | 360 | 2.0 | 6.0 | 0.00 | 0.00 | 0.00 | 74 | 1009.4 |
| 20260508200317 | 83 | 360 | 3.0 | 5.0 | 0.00 | 0.00 | 0.00 | 75 | 1009.5 |
| 20260508195814 | 82 | 360 | 2.0 | 5.0 | 0.00 | 0.01 | 0.00 | 75 | 1009.6 |
| 20260508195332 | 82 | 360 | 3.0 | 5.0 | 0.00 | 0.01 | 0.00 | 76 | 1009.7 |
| 20260508194832 | 82 | 360 | 2.0 | 8.0 | 0.00 | 0.01 | 0.00 | 75 | 1009.7 |
| 20260508194330 | 82 | 360 | 2.0 | 8.0 | 0.00 | 0.01 | 0.00 | 76 | 1009.7 |
| 20260508193827 | 81 | 360 | 3.0 | 5.0 | 0.00 | 0.01 | 0.00 | 76 | 1009.7 |
| 20260508193325 | 82 | 360 | 3.0 | 5.0 | 0.00 | 0.01 | 0.00 | 75 | 1009.8 |
| 20260508192843 | 82 | 360 | 1.0 | 8.0 | 0.00 | 0.01 | 0.00 | 75 | 1010.0 |
| 20260508192319 | 81 | 360 | 2.0 | 8.0 | 0.00 | 0.01 | 0.00 | 75 | 1009.9 |
| 20260508191816 | 81 | 360 | 4.0 | 8.0 | 0.00 | 0.01 | 0.00 | 76 | 1010.0 |
| 20260508191316 | 81 | 360 | 2.0 | 6.0 | 0.00 | 0.01 | 0.00 | 77 | 1010.0 |
| 20260508190815 | 81 | 360 | 3.0 | 5.0 | 0.00 | 0.01 | 0.00 | 76 | 1010.1 |
| 20260508190332 | 81 | 360 | 2.0 | 5.0 | 0.00 | 0.01 | 0.00 | 77 | 1010.3 |
| 20260508185831 | 80 | 360 | 3.0 | 5.0 | 0.00 | 0.01 | 0.00 | 76 | 1010.3 |
| 20260508185329 | 80 | 360 | 1.0 | 5.0 | 0.00 | 0.01 | 0.00 | 76 | 1010.3 |
| 20260508184849 | 80 | 360 | 2.0 | 5.0 | 0.00 | 0.01 | 0.00 | 76 | 1010.4 |
| 20260508184327 | 79 | 360 | 1.0 | 5.0 | 0.00 | 0.01 | 0.00 | 76 | 1010.4 |
| 20260508183824 | 79 | 360 | 3.0 | 5.0 | 0.00 | 0.01 | 0.00 | 76 | 1010.6 |
| 20260508183324 | 79 | 360 | 3.0 | 6.0 | 0.00 | 0.01 | 0.00 | 77 | 1010.6 |
| 20260508182821 | 78 | 360 | 1.0 | 6.0 | 0.00 | 0.01 | 0.00 | 80 | 1010.7 |
| 20260508182319 | 77 | 360 | 2.0 | 6.0 | 0.00 | 0.01 | 0.00 | 80 | 1010.8 |
| 20260508181816 | 76 | 360 | 3.0 | 6.0 | 0.00 | 0.01 | 0.00 | 81 | 1010.9 |
| 20260508181315 | 76 | 360 | 2.0 | 3.0 | 0.00 | 0.01 | 0.00 | 79 | 1011.0 |
| 20260508180814 | 76 | 360 | 1.0 | 3.0 | 0.00 | 0.01 | 0.00 | 81 | 1011.2 |
| 20260508180334 | 75 | 360 | 1.0 | 3.0 | 0.00 | 0.01 | 0.00 | 82 | 1011.3 |
| 20260508175831 | 75 | 360 | 2.0 | 3.0 | 0.00 | 0.01 | 0.00 | 81 | 1011.3 |
| 20260508175330 | 75 | 360 | 2.0 | 3.0 | 0.00 | 0.01 | 0.00 | 81 | 1011.3 |
| 20260508174815 | 75 | 360 | 1.0 | 3.0 | 0.00 | 0.01 | 0.00 | 82 | 1011.3 |
| 20260508174351 | 75 | 360 | 0.0 | 4.0 | 0.00 | 0.01 | 0.00 | 82 | 1011.2 |
| 20260508173829 | 74 | 360 | 2.0 | 4.0 | 0.00 | 0.01 | 0.00 | 81 | 1011.3 |
| 20260508173328 | 74 | 360 | 0.0 | 2.0 | 0.00 | 0.01 | 0.00 | 81 | 1011.4 |
| 20260508172826 | 74 | 360 | 1.0 | 4.0 | 0.00 | 0.01 | 0.00 | 82 | 1011.6 |
| 20260508172324 | 74 | 360 | 1.0 | 4.0 | 0.00 | 0.01 | 0.00 | 82 | 1011.7 |
| 20260508171822 | 73 | 360 | 0.0 | 5.0 | 0.00 | 0.01 | 0.00 | 82 | 1011.5 |
| 20260508171322 | 73 | 360 | 3.0 | 5.0 | 0.00 | 0.01 | 0.00 | 82 | 1011.5 |
| 20260508170820 | 73 | 360 | 2.0 | 4.0 | 0.00 | 0.01 | 0.00 | 82 | 1011.5 |
| 20260508170337 | 73 | 360 | 2.0 | 6.0 | 0.00 | 0.01 | 0.00 | 82 | 1011.7 |
| 20260508165813 | 73 | 360 | 1.0 | 6.0 | 0.00 | 0.01 | 0.00 | 81 | 1011.8 |
| 20260508165314 | 73 | 360 | 2.0 | 4.0 | 0.00 | 0.01 | 0.00 | 81 | 1011.8 |
| 20260508164853 | 73 | 360 | 1.0 | 4.0 | 0.00 | 0.01 | 0.00 | 81 | 1011.8 |
| 20260508164332 | 73 | 360 | 0.0 | 3.0 | 0.00 | 0.01 | 0.00 | 79 | 1011.9 |
| 20260508163831 | 73 | 360 | 1.0 | 3.0 | 0.00 | 0.01 | 0.00 | 81 | 1011.9 |
| 20260508163330 | 73 | 360 | 2.0 | 4.0 | 0.00 | 0.01 | 0.00 | 81 | 1012.0 |
| 20260508162828 | 73 | 360 | 2.0 | 4.0 | 0.00 | 0.01 | 0.00 | 81 | 1012.0 |
| 20260508162326 | 73 | 360 | 0.0 | 2.0 | 0.00 | 0.01 | 0.00 | 79 | 1012.1 |
| 20260508161826 | 73 | 360 | 0.0 | 3.0 | 0.00 | 0.01 | 0.00 | 80 | 1012.2 |
| 20260508161325 | 72 | 360 | 1.0 | 3.0 | 0.00 | 0.01 | 0.00 | 80 | 1012.3 |
| 20260508160824 | 72 | 360 | 1.0 | 4.0 | 0.00 | 0.01 | 0.00 | 81 | 1012.3 |
| 20260508160321 | 71 | 360 | 1.0 | 4.0 | 0.00 | 0.01 | 0.00 | 82 | 1012.3 |
| 20260508155820 | 71 | 360 | 2.0 | 5.0 | 0.00 | 0.01 | 0.00 | 81 | 1012.2 |
| 20260508155319 | 71 | 360 | 3.0 | 5.0 | 0.00 | 0.01 | 0.00 | 83 | 1012.1 |
| 20260508154817 | 70 | 360 | 1.0 | 3.0 | 0.00 | 0.01 | 0.00 | 84 | 1012.3 |
| 20260508154315 | 70 | 360 | 1.0 | 3.0 | 0.00 | 0.01 | 0.00 | 84 | 1012.4 |
| 20260508153815 | 69 | 360 | 1.0 | 3.0 | 0.00 | 0.01 | 0.00 | 83 | 1012.7 |
| 20260508153313 | 69 | 360 | 1.0 | 4.0 | 0.00 | 0.01 | 0.00 | 83 | 1012.8 |
| 20260508152832 | 69 | 360 | 2.0 | 4.0 | 0.00 | 0.01 | 0.00 | 84 | 1012.9 |
| 20260508152332 | 69 | 360 | 1.0 | 4.0 | 0.00 | 0.01 | 0.00 | 84 | 1012.8 |
| 20260508151830 | 69 | 360 | 2.0 | 4.0 | 0.00 | 0.01 | 0.00 | 84 | 1012.7 |
| 20260508151330 | 69 | 360 | 1.0 | 4.0 | 0.00 | 0.01 | 0.00 | 84 | 1013.0 |
| 20260508150829 | 69 | 360 | 2.0 | 6.0 | 0.00 | 0.01 | 0.00 | 84 | 1012.9 |
| 20260508150330 | 69 | 360 | 4.0 | 6.0 | 0.00 | 0.01 | 0.00 | 84 | 1012.7 |
| 20260508145830 | 68 | 360 | 2.0 | 6.0 | 0.00 | 0.01 | 0.00 | 85 | 1012.8 |
| 20260508145329 | 68 | 360 | 1.0 | 6.0 | 0.00 | 0.01 | 0.00 | 85 | 1012.9 |
| 20260508144828 | 68 | 360 | 3.0 | 6.0 | 0.00 | 0.01 | 0.00 | 85 | 1012.8 |
| 20260508144327 | 68 | 360 | 2.0 | 6.0 | 0.00 | 0.01 | 0.00 | 84 | 1012.9 |
| 20260508143853 | 67 | 360 | 1.0 | 5.0 | 0.00 | 0.01 | 0.00 | 86 | 1013.0 |
| 20260508143331 | 67 | 360 | 1.0 | 9.0 | 0.00 | 0.01 | 0.00 | 85 | 1013.0 |
| 20260508142829 | 67 | 360 | 2.0 | 9.0 | 0.00 | 0.01 | 0.00 | 85 | 1013.0 |
| 20260508142347 | 66 | 360 | 3.0 | 5.0 | 0.00 | 0.01 | 0.00 | 85 | 1013.0 |
| 20260508141827 | 66 | 360 | 2.0 | 5.0 | 0.00 | 0.01 | 0.00 | 86 | 1013.0 |
| 20260508141328 | 66 | 360 | 2.0 | 5.0 | 0.00 | 0.01 | 0.00 | 87 | 1012.9 |
| 20260508140826 | 66 | 360 | 2.0 | 5.0 | 0.00 | 0.01 | 0.00 | 87 | 1012.9 |
| 20260508140327 | 65 | 360 | 2.0 | 5.0 | 0.00 | 0.01 | 0.00 | 86 | 1013.1 |
| 20260508135828 | 65 | 360 | 2.0 | 5.0 | 0.00 | 0.01 | 0.00 | 87 | 1013.1 |
| 20260508135314 | 65 | 360 | 1.0 | 4.0 | 0.00 | 0.01 | 0.00 | 88 | 1013.1 |